This is the latest recevied weather packets stored in our database for station/object KB3HLL. If no packets are shown the sender has not sent any weather packets the latest 1 day(s).
| Time | Temp. | Humidity | Pressure | Rain* | Wind** | Luminosity | Snow |
|---|---|---|---|---|---|---|---|
| 1778035279 | 18.33° C | 70% | 1011.3 hPa | 0 mm | 0.89 m/s, 228° | 0 W/m² | - |
| 1778034977 | 18.89° C | 69% | 1011.3 hPa | 0 mm | 0.89 m/s, 207° | 0 W/m² | - |
| 1778034678 | 18.89° C | 69% | 1011.3 hPa | 0 mm | 0 m/s | 0 W/m² | - |
| 1778034378 | 18.89° C | 69% | 1011.3 hPa | 0 mm | 0.89 m/s, 216° | 0 W/m² | - |
| 1778034078 | 18.89° C | 69% | 1011.4 hPa | 0 mm | 0.89 m/s, 235° | 0 W/m² | - |
| 1778033777 | 18.89° C | 69% | 1011.4 hPa | 0 mm | 1.34 m/s, 231° | 0 W/m² | - |
| 1778033478 | 18.89° C | 69% | 1011.3 hPa | 0 mm | 0.89 m/s, 228° | 0 W/m² | - |
| 1778033177 | 18.89° C | 69% | 1011.3 hPa | 0 mm | 0.89 m/s, 228° | 0 W/m² | - |
| 1778032877 | 18.89° C | 69% | 1011.4 hPa | 0 mm | 0.45 m/s, 242° | 0 W/m² | - |
| 1778032578 | 18.89° C | 69% | 1011.4 hPa | 0 mm | 0.45 m/s, 250° | 0 W/m² | - |
| 1778032277 | 18.89° C | 69% | 1011.4 hPa | 0 mm | 0.45 m/s, 251° | 0 W/m² | - |
| 1778031977 | 18.89° C | 69% | 1011.4 hPa | 0 mm | 0.45 m/s, 254° | 0 W/m² | - |
| 1778031677 | 18.89° C | 68% | 1011.3 hPa | 0 mm | 0.89 m/s, 240° | 0 W/m² | - |
| 1778031377 | 18.89° C | 69% | 1011.3 hPa | 0 mm | 1.34 m/s, 239° | 0 W/m² | - |
| 1778031078 | 18.89° C | 69% | 1011.2 hPa | 0 mm | 0.89 m/s, 246° | 0 W/m² | - |
| 1778030780 | 18.89° C | 68% | 1011.2 hPa | 0 mm | 0.89 m/s, 227° | 0 W/m² | - |
| 1778030478 | 18.89° C | 68% | 1011.2 hPa | 0 mm | 1.34 m/s, 226° | 0 W/m² | - |
| 1778030178 | 18.89° C | 68% | 1011.1 hPa | 0 mm | 0 m/s | 0 W/m² | - |
| 1778029879 | 18.89° C | 68% | 1011 hPa | 0 mm | 0.89 m/s, 208° | 0 W/m² | - |
| 1778029579 | 18.89° C | 68% | 1011 hPa | 0 mm | 0.89 m/s, 243° | 0 W/m² | - |
| 1778029278 | 18.89° C | 68% | 1011 hPa | 0 mm | 1.34 m/s, 233° | 0 W/m² | - |
| 1778028977 | 18.89° C | 68% | 1011 hPa | 0 mm | 0 m/s | 0 W/m² | - |
| 1778028680 | 18.89° C | 68% | 1011 hPa | 0 mm | 0.45 m/s, 232° | 0 W/m² | - |
| 1778028377 | 18.89° C | 69% | 1011 hPa | 0 mm | 0.89 m/s, 246° | 0 W/m² | - |
| 1778028077 | 18.89° C | 68% | 1010.9 hPa | 0 mm | 0.89 m/s, 234° | 0 W/m² | - |
* Rain latest hour (hover to see other rain measurements)
** Current wind speed in m/s (hover to see current wind gust speed)